Home   Weather   Aktau   Past weeks

Flag for Kazakhstan Past Weather in Aktau, Kazakhstan — Yesterday and Last 2 Weeks

45 °F


Feels Like: 38 °F
Forecast: 35 / 50 °F
Wind: 13 mph from Northeast

Location: Aktau

Current Time: Oct 21, 2016 at 6:15:45 PM

Latest Report: Oct 21, 2016 at 5:30 PM

Visibility: N/A

Pressure: 30.48 "Hg

Humidity: 49%

Dew Point: 27 °F

Location of AktauLocation

Past Weather in Aktau — Graph


Aktau Temperature Yesterday

Maximum temperature yesterday: 52 °F (at 2:30 PM)
Minimum temperature yesterday: 28 °F (at 5:00 AM)
Average temperature yesterday: 40 °F

High & Low Weather Summary for the Past Weeks

High81 °F (Oct 8, 2:00 PM)100% (Oct 15, 2:30 AM)30.60 "Hg (Oct 15, 2:30 AM)
Low23 °F (Oct 19, 5:30 AM)12% (Oct 7, 2:00 PM)29.95 "Hg (Oct 14, 2:30 PM)
Average50 °F57%30.21 "Hg
* Reported Oct 6 5:00 PM — Oct 21 5:00 PM, Aktau, Weather by CustomWeather, © 2016

Note: Actual official high and low records may vary slightly from our data, if they occured in-between our weather recording intervals... More about our weather records


Aktau Weather History for the Previous 24 Hours

Scroll right to see more
Time TempWeatherWind HumidityBarometerVisibility
5:00 PM
Fri, Oct 21
45 °FOvercast.13 mph46%30.48 "HgN/A
4:30 PM45 °FSunny.15 mph46%30.45 "Hg10 mi
4:00 PM45 °FSunny.15 mph49%30.45 "Hg10 mi
3:30 PM45 °FPartly sunny.15 mph46%30.45 "HgN/A
3:00 PM45 °FPartly sunny.15 mph49%30.45 "HgN/A
2:30 PM46 °FPartly sunny.10 mph40%30.45 "HgN/A
2:00 PM46 °FPartly sunny.15 mph40%30.45 "HgN/A
1:30 PM45 °FPartly sunny.15 mph42%30.45 "HgN/A
1:00 PM45 °FMostly cloudy.15 mph39%30.45 "HgN/A
12:00 PM43 °FMostly cloudy.15 mph46%30.45 "HgN/A
11:30 AM43 °FOvercast.13 mph46%30.45 "HgN/A
11:00 AM43 °FOvercast.13 mph49%30.45 "HgN/A
10:30 AM41 °FPartly sunny.13 mph53%30.45 "HgN/A
10:00 AM41 °FPartly sunny.13 mph61%30.45 "HgN/A
9:30 AM39 °FPassing clouds.8 mph61%30.45 "HgN/A
9:00 AM39 °FPassing clouds.6 mph65%30.45 "HgN/A
8:30 AM37 °FPassing clouds.3 mph70%30.42 "HgN/A
8:00 AM37 °FPassing clouds.3 mph70%30.42 "HgN/A
7:30 AM36 °FPassing clouds.6 mph70%30.42 "HgN/A
7:00 AM36 °FOvercast.6 mph70%30.42 "HgN/A
6:30 AM34 °FPassing clouds.6 mph75%30.42 "HgN/A
6:00 AM32 °FClear.6 mph75%30.39 "Hg10 mi
5:30 AM30 °FClear.8 mph80%30.39 "Hg10 mi
5:00 AM32 °FClear.8 mph75%30.39 "Hg10 mi
4:30 AM32 °FClear.8 mph75%30.39 "Hg10 mi
4:00 AM32 °FClear.8 mph80%30.39 "Hg10 mi
3:30 AM34 °FClear.8 mph75%30.39 "Hg10 mi
3:00 AM34 °FClear.8 mph75%30.39 "Hg10 mi
2:30 AM34 °FClear.8 mph75%30.39 "Hg10 mi
2:00 AM34 °FClear.8 mph75%30.39 "Hg10 mi
1:30 AM34 °FClear.8 mph75%30.39 "Hg10 mi
1:00 AM34 °FClear.8 mph75%30.39 "Hg10 mi
12:30 AM34 °FClear.8 mph75%30.39 "Hg10 mi
12:00 AM34 °FClear.8 mph75%30.39 "Hg10 mi
11:30 PM
Thu, Oct 20
36 °FClear.8 mph75%30.39 "Hg10 mi
11:00 PM36 °FClear.6 mph75%30.39 "Hg10 mi
10:30 PM36 °FClear.8 mph81%30.39 "Hg10 mi
10:00 PM36 °FClear.6 mph75%30.39 "Hg10 mi
9:30 PM39 °FClear.8 mph65%30.39 "Hg10 mi
9:00 PM41 °FPassing clouds.8 mph61%30.39 "HgN/A
8:30 PM43 °FSunny.10 mph53%30.36 "Hg10 mi
8:00 PM43 °FSunny.13 mph53%30.36 "Hg10 mi
7:30 PM45 °FSunny.10 mph49%30.36 "Hg10 mi
7:00 PM46 °FSunny.8 mph46%30.36 "Hg10 mi
6:30 PM48 °FSunny.10 mph43%30.36 "Hg10 mi
6:00 PM50 °FSunny.13 mph40%30.36 "Hg10 mi
Weather by CustomWeather, © 2016

See weather overviewHow to use our weather pages